This is the latest recevied weather packets stored in our database for station/object SIILIN. If no packets are shown the sender has not sent any weather packets the latest 10 day(s).
| Time | Temp. | Humidity | Pressure | Rain* | Wind** | Luminosity | Snow |
|---|---|---|---|---|---|---|---|
| 1777520815 | 3.33° C | 92% | 1020.9 hPa | - | - | - | - |
| 1777519614 | 3.33° C | 92% | 1021 hPa | - | - | - | - |
| 1777518415 | 3.33° C | 91% | 1021.2 hPa | - | - | - | - |
| 1777517214 | 3.33° C | 91% | 1021.3 hPa | - | - | - | - |
| 1777516014 | 3.33° C | 90% | 1021.3 hPa | - | - | - | - |
| 1777514814 | 3.33° C | 90% | 1021.4 hPa | - | - | - | - |
| 1777513614 | 3.33° C | 90% | 1021.7 hPa | - | - | - | - |
| 1777512414 | 3.33° C | 89% | 1021.6 hPa | - | - | - | - |
| 1777511214 | 3.33° C | 88% | 1021.7 hPa | - | - | - | - |
| 1777510014 | 3.33° C | 84% | 1021.9 hPa | - | - | - | - |
| 1777508814 | 3.33° C | 82% | 1022.2 hPa | - | - | - | - |
| 1777507614 | 3.33° C | 79% | 1022.4 hPa | - | - | - | - |
| 1777506414 | 3.33° C | 80% | 1022.6 hPa | - | - | - | - |
| 1777505214 | 3.33° C | 75% | 1022.5 hPa | - | - | - | - |
| 1777504013 | 3.89° C | 77% | 1022.6 hPa | - | - | - | - |
| 1777502813 | 3.33° C | 75% | 1022.6 hPa | - | - | - | - |
| 1777501614 | 3.89° C | 73% | 1022.6 hPa | - | - | - | - |
| 1777500413 | 3.89° C | 68% | 1022.7 hPa | - | - | - | - |
| 1777499213 | 3.89° C | 65% | 1022.7 hPa | - | - | - | - |
| 1777498013 | 4.44° C | 63% | 1022.7 hPa | - | - | - | - |
| 1777496813 | 4.44° C | 57% | 1022.7 hPa | - | - | - | - |
| 1777495613 | 4.44° C | 56% | 1022.6 hPa | - | - | - | - |
| 1777494413 | 4.44° C | 55% | 1022.7 hPa | - | - | - | - |
| 1777493213 | 5° C | 53% | 1022.8 hPa | - | - | - | - |
| 1777492013 | 5° C | 50% | 1023 hPa | - | - | - | - |
* Rain since midnight (hover to see other rain measurements)
** Current wind speed in m/s (hover to see current wind gust speed)